Volver al catálogo

COSMIC

ActivoMilitarSSO
NORAD 66658·PAYLOAD·🇰🇷 South Korea

Lanzado Nov 26, 2025 desde Naro Space Center

Loading…

Próximos Pases (próximas 24 horas)

TLE

ActualizadoSource: Space-Track

Época: Sep 14, 2026, 05:43 UTC

1 66658U 25274J   26257.23883230  .00002269  00000-0  21360-3 0  9996
2 66658  97.7478 185.5202 0014176  80.0779 280.2041 14.94772123 43530

Sigue COSMIC en tiempo real con AllMySat

Download on the App Store